"Period start","avg(HW err(1)/warn(2) (#))","avg(Visibility (m))","avg(Weather code (#))","avg(Precip intensity (mm/h))","min(HW err(1)/warn(2) (#))","max(HW err(1)/warn(2) (#))","std(HW err(1)/warn(2) (#))","med(HW err(1)/warn(2) (#))","min(Visibility (m))","max(Visibility (m))","std(Visibility (m))","med(Visibility (m))","min(Weather code (#))","max(Weather code (#))","std(Weather code (#))","med(Weather code (#))","min(Precip intensity (mm/h))","max(Precip intensity (mm/h))","std(Precip intensity (mm/h))","med(Precip intensity (mm/h))"
2016-09-03 00:00:00,0,29869,0,0.00,0,0,0,0,19022,40381,6057,28682,0,0,0,0,0.00,0.00,0.00,0.00
2016-09-03 00:10:00,0,30794,0,0.00,0,0,0,0,22870,50000,8716,27614,0,0,0,0,0.00,0.00,0.00,0.00
2016-09-03 00:20:00,0,36559,0,0.00,0,0,0,0,20930,50000,10188,37365,0,0,0,0,0.00,0.00,0.00,0.00
2016-09-03 00:30:00,0,38399,0,0.00,0,0,0,0,23088,49761,8423,38824,0,0,0,0,0.00,0.00,0.00,0.00
2016-09-03 00:40:00,0,36542,0,0.00,0,0,0,0,20195,49529,9380,35472,0,0,0,0,0.00,0.00,0.00,0.00
2016-09-03 00:50:00,0,33824,0,0.00,0,0,0,0,25511,48628,6724,31901,0,0,0,0,0.00,0.00,0.00,0.00
2016-09-03 01:00:00,0,40400,0,0.00,0,0,0,0,24434,50000,8859,42857,0,0,0,0,0.00,0.00,0.00,0.00
2016-09-03 01:10:00,0,31250,0,0.00,0,0,0,0,21796,36772,4917,32378,0,0,0,0,0.00,0.00,0.00,0.00
2016-09-03 01:20:00,0,40763,0,0.00,0,0,0,0,30182,50000,8145,41274,0,0,0,0,0.00,0.00,0.00,0.00
2016-09-03 01:30:00,0,35305,0,0.00,0,0,0,0,24089,48459,8617,30864,0,0,0,0,0.00,0.00,0.00,0.00
2016-09-03 01:40:00,0,33844,0,0.00,0,0,0,0,24073,49291,8665,33098,0,0,0,0,0.00,0.00,0.00,0.00
2016-09-03 01:50:00,0,38332,0,0.00,0,0,0,0,22507,50000,8867,40801,0,0,0,0,0.00,0.00,0.00,0.00
2016-09-03 02:00:00,0,39429,0,0.00,0,0,0,0,25446,50000,8438,40952,0,0,0,0,0.00,0.00,0.00,0.00
2016-09-03 02:10:00,0,38931,0,0.00,0,0,0,0,24690,50000,9206,38201,0,0,0,0,0.00,0.00,0.00,0.00
2016-09-03 02:20:00,0,36866,0,0.00,0,0,0,0,26622,50000,8045,36936,0,0,0,0,0.00,0.00,0.00,0.00
2016-09-03 02:30:00,0,45864,0,0.00,0,0,0,0,31253,50000,6811,50000,0,0,0,0,0.00,0.00,0.00,0.00
2016-09-03 02:40:00,0,39659,0,0.00,0,0,0,0,21699,50000,10190,43334,0,0,0,0,0.00,0.00,0.00,0.00
2016-09-03 02:50:00,0,40361,0,0.00,0,0,0,0,30659,50000,6083,40900,0,0,0,0,0.00,0.00,0.00,0.00
2016-09-03 03:00:00,0,34992,0,0.00,0,0,0,0,27839,45768,6610,31333,0,0,0,0,0.00,0.00,0.00,0.00
2016-09-03 03:10:00,0,40320,0,0.00,0,0,0,0,32864,50000,5223,39173,0,0,0,0,0.00,0.00,0.00,0.00
2016-09-03 03:20:00,0,33228,0,0.00,0,0,0,0,26149,44171,5366,34030,0,0,0,0,0.00,0.00,0.00,0.00
2016-09-03 03:30:00,0,39682,0,0.00,0,0,0,0,30094,50000,6604,39204,0,0,0,0,0.00,0.00,0.00,0.00
2016-09-03 03:40:00,0,38716,0,0.00,0,0,0,0,32787,45984,4579,38609,0,0,0,0,0.00,0.00,0.00,0.00
2016-09-03 03:50:00,0,39647,0,0.00,0,0,0,0,32660,50000,5023,37930,0,0,0,0,0.00,0.00,0.00,0.00
2016-09-03 04:00:00,0,45445,0,0.00,0,0,0,0,38613,50000,4505,46142,0,0,0,0,0.00,0.00,0.00,0.00
2016-09-03 04:10:00,0,48685,0,0.00,0,0,0,0,44066,50000,2261,50000,0,0,0,0,0.00,0.00,0.00,0.00
2016-09-03 04:20:00,0,45585,0,0.00,0,0,0,0,39974,50000,3773,44932,0,0,0,0,0.00,0.00,0.00,0.00
2016-09-03 04:30:00,0,45921,0,0.00,0,0,0,0,33857,50000,4490,46424,0,0,0,0,0.00,0.00,0.00,0.00
2016-09-03 04:40:00,0,45482,0,0.00,0,0,0,0,39321,50000,4105,45144,0,0,0,0,0.00,0.00,0.00,0.00
2016-09-03 04:50:00,0,46560,0,0.00,0,0,0,0,38228,50000,4213,48626,0,0,0,0,0.00,0.00,0.00,0.00
2016-09-03 05:00:00,0,45253,0,0.00,0,0,0,0,40161,50000,3320,44796,0,0,0,0,0.00,0.00,0.00,0.00
2016-09-03 05:10:00,0,47896,0,0.00,0,0,0,0,39435,50000,3261,49998,0,0,0,0,0.00,0.00,0.00,0.00
2016-09-03 05:20:00,0,47918,0,0.00,0,0,0,0,42688,50000,2351,48395,0,0,0,0,0.00,0.00,0.00,0.00
2016-09-03 05:30:00,0,49530,0,0.00,0,0,0,0,46926,50000,941,50000,0,0,0,0,0.00,0.00,0.00,0.00
2016-09-03 05:40:00,0,47248,0,0.00,0,0,0,0,39996,50000,3819,49285,0,0,0,0,0.00,0.00,0.00,0.00
2016-09-03 05:50:00,0,49213,0,0.00,0,0,0,0,44979,50000,1647,50000,0,0,0,0,0.00,0.00,0.00,0.00
2016-09-03 06:00:00,0,45899,0,0.00,0,0,0,0,35206,50000,4992,48735,0,0,0,0,0.00,0.00,0.00,0.00
2016-09-03 06:10:00,0,46824,0,0.00,0,0,0,0,38368,50000,3830,48773,0,0,0,0,0.00,0.00,0.00,0.00
2016-09-03 06:20:00,0,49736,0,0.00,0,0,0,0,47358,50000,793,50000,0,0,0,0,0.00,0.00,0.00,0.00
2016-09-03 06:30:00,0,44230,0,0.00,0,0,0,0,35150,50000,5181,45054,0,0,0,0,0.00,0.00,0.00,0.00
2016-09-03 06:40:00,0,49116,0,0.00,0,0,0,0,43826,50000,1846,50000,0,0,0,0,0.00,0.00,0.00,0.00
2016-09-03 06:50:00,0,49547,0,0.00,0,0,0,0,47169,50000,873,50000,0,0,0,0,0.00,0.00,0.00,0.00
2016-09-03 07:00:00,0,48043,0,0.00,0,0,0,0,42635,50000,2619,50000,0,0,0,0,0.00,0.00,0.00,0.00
2016-09-03 07:10:00,0,48325,0,0.00,0,0,0,0,42251,50000,2508,49986,0,0,0,0,0.00,0.00,0.00,0.00
2016-09-03 07:20:00,0,49469,0,0.00,0,0,0,0,47229,50000,952,50000,0,0,0,0,0.00,0.00,0.00,0.00
2016-09-03 07:30:00,0,47055,0,0.00,0,0,0,0,37858,50000,3897,48638,0,0,0,0,0.00,0.00,0.00,0.00
2016-09-03 07:40:00,0,47604,0,0.00,0,0,0,0,41582,50000,2526,48340,0,0,0,0,0.00,0.00,0.00,0.00
2016-09-03 07:50:00,0,49858,0,0.00,0,0,0,0,48575,50000,428,50000,0,0,0,0,0.00,0.00,0.00,0.00
2016-09-03 08:00:00,0,47959,0,0.00,0,0,0,0,43817,50000,2310,48909,0,0,0,0,0.00,0.00,0.00,0.00
2016-09-03 08:10:00,0,48663,0,0.00,0,0,0,0,43733,50000,1923,49620,0,0,0,0,0.00,0.00,0.00,0.00
2016-09-03 08:20:00,0,49657,0,0.00,0,0,0,0,47303,50000,815,50000,0,0,0,0,0.00,0.00,0.00,0.00
2016-09-03 08:30:00,0,49716,0,0.00,0,0,0,0,48784,50000,459,50000,0,0,0,0,0.00,0.00,0.00,0.00
2016-09-03 08:40:00,0,49860,0,0.00,0,0,0,0,48600,50000,420,50000,0,0,0,0,0.00,0.00,0.00,0.00
2016-09-03 08:50:00,0,49506,0,0.00,0,0,0,0,45604,50000,1311,50000,0,0,0,0,0.00,0.00,0.00,0.00
2016-09-03 09:00:00,0,49616,0,0.00,0,0,0,0,47322,50000,825,50000,0,0,0,0,0.00,0.00,0.00,0.00
2016-09-03 09:10:00,0,49548,0,0.00,0,0,0,0,47129,50000,945,50000,0,0,0,0,0.00,0.00,0.00,0.00
2016-09-03 09:20:00,0,49834,0,0.00,0,0,0,0,48336,50000,499,50000,0,0,0,0,0.00,0.00,0.00,0.00
2016-09-03 09:30:00,0,49353,0,0.00,0,0,0,0,45666,50000,1384,50000,0,0,0,0,0.00,0.00,0.00,0.00
2016-09-03 09:40:00,0,49913,0,0.00,0,0,0,0,49127,50000,262,50000,0,0,0,0,0.00,0.00,0.00,0.00
2016-09-03 09:50:00,0,49940,0,0.00,0,0,0,0,49404,50000,179,50000,0,0,0,0,0.00,0.00,0.00,0.00
2016-09-03 10:00:00,0,48597,0,0.00,0,0,0,0,43092,50000,2328,50000,0,0,0,0,0.00,0.00,0.00,0.00
2016-09-03 10:10:00,0,50000,0,0.00,0,0,0,0,50000,50000,0,50000,0,0,0,0,0.00,0.00,0.00,0.00
2016-09-03 10:20:00,0,50000,0,0.00,0,0,0,0,50000,50000,0,50000,0,0,0,0,0.00,0.00,0.00,0.00
2016-09-03 10:30:00,0,50000,0,0.00,0,0,0,0,50000,50000,0,50000,0,0,0,0,0.00,0.00,0.00,0.00
2016-09-03 10:40:00,0,50000,0,0.00,0,0,0,0,50000,50000,0,50000,0,0,0,0,0.00,0.00,0.00,0.00
2016-09-03 10:50:00,0,50000,0,0.00,0,0,0,0,50000,50000,0,50000,0,0,0,0,0.00,0.00,0.00,0.00
2016-09-03 11:00:00,0,50000,0,0.00,0,0,0,0,50000,50000,0,50000,0,0,0,0,0.00,0.00,0.00,0.00
2016-09-03 11:10:00,0,50000,0,0.00,0,0,0,0,50000,50000,0,50000,0,0,0,0,0.00,0.00,0.00,0.00
2016-09-03 11:20:00,0,50000,0,0.00,0,0,0,0,50000,50000,0,50000,0,0,0,0,0.00,0.00,0.00,0.00
2016-09-03 11:30:00,0,49981,0,0.00,0,0,0,0,49811,50000,57,50000,0,0,0,0,0.00,0.00,0.00,0.00
2016-09-03 11:40:00,0,50000,0,0.00,0,0,0,0,50000,50000,0,50000,0,0,0,0,0.00,0.00,0.00,0.00
2016-09-03 11:50:00,0,50000,0,0.00,0,0,0,0,50000,50000,0,50000,0,0,0,0,0.00,0.00,0.00,0.00
2016-09-03 12:00:00,0,49439,0,0.00,0,0,0,0,47586,50000,895,50000,0,0,0,0,0.00,0.00,0.00,0.00
2016-09-03 12:10:00,0,48878,0,0.00,0,0,0,0,44695,50000,1558,49474,0,0,0,0,0.00,0.00,0.00,0.00
2016-09-03 12:20:00,0,49954,0,0.00,0,0,0,0,49544,50000,137,50000,0,0,0,0,0.00,0.00,0.00,0.00
2016-09-03 12:30:00,0,49276,0,0.00,0,0,0,0,46627,50000,1134,50000,0,0,0,0,0.00,0.00,0.00,0.00
2016-09-03 12:40:00,0,50000,0,0.00,0,0,0,0,50000,50000,0,50000,0,0,0,0,0.00,0.00,0.00,0.00
2016-09-03 12:50:00,0,50000,0,0.00,0,0,0,0,50000,50000,0,50000,0,0,0,0,0.00,0.00,0.00,0.00
2016-09-03 13:00:00,0,49900,0,0.00,0,0,0,0,48995,50000,302,50000,0,0,0,0,0.00,0.00,0.00,0.00
2016-09-03 13:10:00,0,49587,0,0.00,0,0,0,0,47916,50000,754,50000,0,0,0,0,0.00,0.00,0.00,0.00
2016-09-03 13:20:00,0,49790,0,0.00,0,0,0,0,48515,50000,452,50000,0,0,0,0,0.00,0.00,0.00,0.00
2016-09-03 13:30:00,0,49812,0,0.00,0,0,0,0,48123,50000,563,50000,0,0,0,0,0.00,0.00,0.00,0.00
2016-09-03 13:40:00,0,50000,0,0.00,0,0,0,0,50000,50000,0,50000,0,0,0,0,0.00,0.00,0.00,0.00
2016-09-03 13:50:00,0,48365,0,0.00,0,0,0,0,39625,50000,3299,50000,0,0,0,0,0.00,0.00,0.00,0.00
2016-09-03 14:00:00,0,38621,0,0.00,0,0,0,0,10915,50000,15510,47786,0,0,0,0,0.00,0.00,0.00,0.00
2016-09-03 14:10:00,0,26349,0,0.00,0,0,0,0,18530,46668,9006,22318,0,0,0,0,0.00,0.00,0.00,0.00
2016-09-03 14:20:00,1,38725,0,0.00,0,2,1,2,27493,50000,6875,37135,0,0,0,0,0.00,0.00,0.00,0.00
2016-09-03 14:30:00,2,37657,0,0.00,2,2,0,2,25667,48937,6361,37392,0,0,0,0,0.00,0.00,0.00,0.00
2016-09-03 14:40:00,2,36223,0,0.00,2,2,0,2,28069,40898,4104,37477,0,0,0,0,0.00,0.00,0.00,0.00
2016-09-03 14:50:00,2,29114,0,0.00,2,2,0,2,22585,39763,6481,26826,0,0,0,0,0.00,0.00,0.00,0.00
2016-09-03 15:00:00,2,41782,0,0.00,2,2,0,2,23530,50000,8315,44382,0,0,0,0,0.00,0.00,0.00,0.00
2016-09-03 15:10:00,2,49713,0,0.00,2,2,0,2,47931,50000,640,50000,0,0,0,0,0.00,0.00,0.00,0.00
2016-09-03 15:20:00,2,49927,0,0.00,2,2,0,2,49270,50000,219,50000,0,0,0,0,0.00,0.00,0.00,0.00
2016-09-03 15:30:00,2,50000,0,0.00,2,2,0,2,50000,50000,0,50000,0,0,0,0,0.00,0.00,0.00,0.00
2016-09-03 15:40:00,1,50000,0,0.00,0,2,1,1,50000,50000,0,50000,0,0,0,0,0.00,0.00,0.00,0.00
2016-09-03 15:50:00,0,49938,0,0.00,0,2,1,0,49635,50000,127,50000,0,0,0,0,0.00,0.00,0.00,0.00
2016-09-03 16:00:00,2,49623,0,0.00,2,2,0,2,46889,50000,932,50000,0,0,0,0,0.00,0.00,0.00,0.00
2016-09-03 16:10:00,2,47814,0,0.00,2,2,0,2,42795,50000,2580,49104,0,0,0,0,0.00,0.00,0.00,0.00
2016-09-03 16:20:00,2,49166,0,0.00,2,2,0,2,45421,50000,1543,50000,0,0,0,0,0.00,0.00,0.00,0.00
2016-09-03 16:30:00,1,50000,0,0.00,0,2,1,1,50000,50000,0,50000,0,0,0,0,0.00,0.00,0.00,0.00
2016-09-03 16:40:00,2,29058,0,0.00,2,2,0,2,3207,50000,17302,32586,0,0,0,0,0.00,0.00,0.00,0.00
2016-09-03 16:50:00,2,49549,0,0.00,2,2,0,2,47931,50000,735,50000,0,0,0,0,0.00,0.00,0.00,0.00
2016-09-03 17:00:00,2,49951,0,0.00,2,2,0,2,49508,50000,148,50000,0,0,0,0,0.00,0.00,0.00,0.00
2016-09-03 17:10:00,2,39150,0,0.00,2,2,0,2,16913,49746,9983,42657,0,0,0,0,0.00,0.00,0.00,0.00
2016-09-03 17:20:00,2,48480,0,0.00,2,2,0,2,37063,50000,3865,50000,0,0,0,0,0.00,0.00,0.00,0.00
2016-09-03 17:30:00,2,47110,0,0.00,2,2,0,2,41817,50000,3140,48170,0,0,0,0,0.00,0.00,0.00,0.00
2016-09-03 17:40:00,2,49845,0,0.00,2,2,0,2,48924,50000,338,50000,0,0,0,0,0.00,0.00,0.00,0.00
2016-09-03 17:50:00,2,49983,0,0.00,2,2,0,2,49886,50000,37,50000,0,0,0,0,0.00,0.00,0.00,0.00
2016-09-03 18:00:00,2,49782,0,0.00,2,2,0,2,48975,50000,353,50000,0,0,0,0,0.00,0.00,0.00,0.00
2016-09-03 18:10:00,2,49972,0,0.00,2,2,0,2,49716,50000,85,50000,0,0,0,0,0.00,0.00,0.00,0.00
2016-09-03 18:20:00,2,47774,0,0.00,2,2,0,2,42208,50000,2380,48078,0,0,0,0,0.00,0.00,0.00,0.00
2016-09-03 18:30:00,2,47866,0,0.00,2,2,0,2,42270,50000,2707,48926,0,0,0,0,0.00,0.00,0.00,0.00
2016-09-03 18:40:00,2,47662,0,0.00,2,2,0,2,39399,50000,3544,50000,0,0,0,0,0.00,0.00,0.00,0.00
2016-09-03 18:50:00,1,22620,5,0.00,0,2,1,2,1800,48979,16623,19246,0,10,5,5,0.00,0.00,0.00,0.00
2016-09-03 19:00:00,0,40080,6,0.00,0,0,0,0,9003,50000,12718,44932,0,10,5,10,0.00,0.00,0.00,0.00
2016-09-03 19:10:00,0,35990,0,0.00,0,0,0,0,4177,50000,15948,45198,0,0,0,0,0.00,0.00,0.00,0.00
2016-09-03 19:20:00,0,30490,0,0.00,0,0,0,0,10517,50000,13318,29427,0,0,0,0,0.00,0.00,0.00,0.00
2016-09-03 19:30:00,0,21372,7,0.00,0,0,0,0,2575,50000,17399,13735,0,10,5,10,0.00,0.00,0.00,0.00
2016-09-03 19:40:00,2,8444,10,0.00,0,2,1,2,3530,20174,5284,5946,10,10,0,10,0.00,0.00,0.00,0.00
2016-09-03 19:50:00,2,23327,5,0.00,2,2,0,2,18181,30111,4374,22966,0,10,5,5,0.00,0.00,0.00,0.00
2016-09-03 20:00:00,2,27069,0,0.00,2,2,0,2,20145,38985,6129,23920,0,0,0,0,0.00,0.00,0.00,0.00
2016-09-03 20:10:00,2,26136,0,0.00,2,2,0,2,20373,32161,3768,25374,0,0,0,0,0.00,0.00,0.00,0.00
2016-09-03 20:20:00,2,19786,0,0.00,2,2,0,2,12450,27752,4745,20602,0,0,0,0,0.00,0.00,0.00,0.00
2016-09-03 20:30:00,2,31247,0,0.00,2,2,0,2,13632,49109,14282,29866,0,0,0,0,0.00,0.00,0.00,0.00
2016-09-03 20:40:00,2,44628,0,0.00,2,2,0,2,36813,50000,4437,45178,0,0,0,0,0.00,0.00,0.00,0.00
2016-09-03 20:50:00,2,49492,0,0.00,2,2,0,2,48296,50000,630,49910,0,0,0,0,0.00,0.00,0.00,0.00
2016-09-03 21:00:00,2,48454,0,0.00,2,2,0,2,43480,50000,2261,50000,0,0,0,0,0.00,0.00,0.00,0.00
2016-09-03 21:10:00,1,49017,0,0.00,0,2,1,2,41626,50000,2485,50000,0,0,0,0,0.00,0.00,0.00,0.00
2016-09-03 21:20:00,0,49016,0,0.00,0,0,0,0,44489,50000,1735,50000,0,0,0,0,0.00,0.00,0.00,0.00
2016-09-03 21:30:00,0,48794,0,0.00,0,0,0,0,45612,50000,1646,50000,0,0,0,0,0.00,0.00,0.00,0.00
2016-09-03 21:40:00,0,47820,0,0.00,0,0,0,0,37326,50000,3913,49744,0,0,0,0,0.00,0.00,0.00,0.00
2016-09-03 21:50:00,0,17826,0,0.00,0,0,0,0,12947,34656,5994,16051,0,0,0,0,0.00,0.00,0.00,0.00
2016-09-03 22:00:00,0,27915,0,0.00,0,0,0,0,22094,39284,5912,25636,0,0,0,0,0.00,0.00,0.00,0.00
2016-09-03 22:10:00,0,44141,0,0.00,0,0,0,0,35673,50000,4308,45329,0,0,0,0,0.00,0.00,0.00,0.00
2016-09-03 22:20:00,0,44650,0,0.00,0,0,0,0,35834,50000,5526,45796,0,0,0,0,0.00,0.00,0.00,0.00
2016-09-03 22:30:00,0,46217,0,0.00,0,0,0,0,41759,50000,3296,46364,0,0,0,0,0.00,0.00,0.00,0.00
2016-09-03 22:40:00,0,42915,0,0.00,0,0,0,0,32907,50000,5533,43200,0,0,0,0,0.00,0.00,0.00,0.00
2016-09-03 22:50:00,0,46133,0,0.00,0,0,0,0,36388,50000,5016,49316,0,0,0,0,0.00,0.00,0.00,0.00
2016-09-03 23:00:00,0,48063,0,0.00,0,0,0,0,42269,50000,2362,48750,0,0,0,0,0.00,0.00,0.00,0.00
2016-09-03 23:10:00,0,41831,0,0.00,0,0,0,0,34718,47519,4268,42830,0,0,0,0,0.00,0.00,0.00,0.00
2016-09-03 23:20:00,0,45509,0,0.00,0,0,0,0,34279,50000,4829,46046,0,0,0,0,0.00,0.00,0.00,0.00
2016-09-03 23:30:00,0,40417,0,0.00,0,0,0,0,26604,50000,9871,42697,0,0,0,0,0.00,0.00,0.00,0.00
2016-09-03 23:40:00,0,40313,0,0.00,0,0,0,0,26029,50000,9116,41090,0,0,0,0,0.00,0.00,0.00,0.00
2016-09-03 23:50:00,2,35948,0,0.00,0,2,1,2,21686,50000,7833,33630,0,0,0,0,0.00,0.00,0.00,0.00
